Terminal Aerodrome Forecast
Issued by NWS Chicago, IL

Home | Current Version | Previous Version | Graphics & Text | Print | Product List | Glossary On
Versions: 1 2 3 4 5 6 7 8 9 10 11 12 13 14 15 16 17 18 19 20 21 22 23 24 25 26 27 28 29
000
FTUS43 KLOT 251043 AAB
TAFRFD
TAF AMD
KRFD 251043Z 2511/2606 31016G24KT P6SM BKN022 BKN035
      TEMPO 2511/2513 5SM -SHSN OVC018
     FM252300 29011G17KT P6SM SCT040
     FM260100 28008KT P6SM SCT150=

USA.gov is the U.S. government's official web portal to all federal, state and local government web resources and services.